Location: Pilipovskiye Korichintsy
(49.1833°N, 27.4667°E)
Time: 00:01:39
(UTC+00:00)

Lacrosse 5 - Pass Details

Date: 01 November 2020
Orbit: 714 x 725 km, 57.0° (Epoch: 30 November)

Event Time Altitude Azimuth Distance (km) Brightness Sun altitude
Rises 15:35:24 0° 293° (WNW) 3,120 6.1 -8.2°
Reaches altitude 10° 15:37:58 10° 302° (WNW) 2,199 5.1 -8.6°
Maximum altitude 15:42:38 36° 9° (N) 1,133 2.7 -9.3°
Enters shadow 15:46:43 13° 73° (ENE) 2,003 3.5 -10.0°
